• Join FlightAware (Why Join?)
  • Login
  • US Flag 
09:42PM EDT


 

Airport Tracker/Info


-or-


 

Live Flight TrackerFlight Track Log ✈ EJA831 ✈ 23-Jul-2013 ✈ KCHA - KSTL

Flight Track Log - Related Links

Times and Time Zones

All times are in EDT time to prevent confusion due to time zone crossing. See the EJA831 flight status page for this flight to view local times or setup timezone preferences in your user account.

Time Position Orientation Groundspeed Altitude Reporting Facility
EDT Latitude Longitude Course Direction KTS MPH feet Rate Location/Type
07:08AM 34.9631 -85.3097 313° West 251 289 8,100  Level Memphis Center
07:09AM 35.0133 -85.3675 317° Northwest 251 289 10,600 2,400 Climbing Memphis Center
07:10AM 35.0658 -85.4303 316° Northwest 256 295 12,900 2,280 Climbing Memphis Center
07:11AM 35.1250 -85.4978 317° Northwest 270 311 15,200 2,220 Climbing Memphis Center
07:12AM 35.4450 -85.7524 316° Northwest  Level FlightAware Approximate
07:12AM 35.1883 -85.5706 317° Northwest 293 337 17,400  Level Memphis Center
07:13AM 35.5173 -85.8409 311° West  Level FlightAware Approximate
07:13AM 35.2558 -85.6453 318° Northwest 310 357 19,700  Level Memphis Center
07:14AM 35.5848 -85.9352 313° West  Level FlightAware Approximate
07:14AM 35.3192 -85.7233 315° West 321 369 21,900  Level Memphis Center
07:15AM 35.3889 -85.8008 318° Northwest 321 369 23,000 540 Climbing Memphis Center
07:16AM 35.4650 -85.8911 316° Northwest 346 398 23,000  Level Memphis Center
07:17AM 35.5456 -85.9836 317° Northwest 372 428 23,000 900 Level Memphis Center
07:18AM 35.6261 -86.0817 315° West 386 444 24,900 2,100 Climbing Memphis Center
07:19AM 35.6978 -86.1672 316° Northwest 366 421 27,200 2,040 Climbing Memphis Center
07:20AM 35.7650 -86.2458 317° Northwest 341 392 29,000 1,380 Climbing Memphis Center
07:21AM 35.8367 -86.3292 317° Northwest 341 392 30,000 480 Climbing Memphis Center
07:22AM 35.9067 -86.4308 310° West 367 422 30,000  Level Memphis Center
07:23AM 35.9606 -86.5539 298° West 395 455 30,000  Level Memphis Center
07:24AM 36.0142 -86.6772 298° West 408 470 30,000  Level Memphis Center
07:25AM 36.0658 -86.8006 297° West 408 470 30,000  Level Memphis Center
07:26AM 36.1150 -86.9142 298° West 408 470 30,000  Level Memphis Center
07:27AM 36.1683 -87.0353 299° West 403 464 30,000  Level Memphis Center
07:28AM 36.2236 -87.1592 299° West 403 464 30,000  Level Memphis Center
07:29AM 36.2811 -87.2908 298° West 403 464 30,000  Level Memphis Center
07:30AM 36.3342 -87.4150 298° West 403 464 30,000  Level Memphis Center
07:31AM 36.3869 -87.5367 298° West 403 464 30,000  Level Memphis Center
07:32AM 36.4419 -87.6614 299° West 403 464 30,000  Level Memphis Center
07:33AM 36.4947 -87.7858 298° West 403 464 30,000  Level Memphis Center
07:34AM 36.5450 -87.9108 297° West 403 464 30,000  Level Memphis Center
07:35AM 36.5953 -88.0308 298° West 403 464 30,000  Level Memphis Center
07:36AM 36.6411 -88.1381 298° West 403 464 30,000  Level Memphis Center
07:37AM 36.6931 -88.2583 298° West 403 464 30,000  Level Memphis Center
07:38AM 36.7431 -88.3814 297° West 403 464 30,000  Level Memphis Center
07:39AM 36.7931 -88.5019 297° West 403 464 30,000 -60 Level Memphis Center
07:40AM 36.8425 -88.6200 298° West 403 464 29,900 -540 Descending Memphis Center
07:41AM 36.8922 -88.7383 298° West 398 458 29,000 -1,140 Descending Memphis Center
07:42AM 36.9414 -88.8567 297° West 393 452 27,700 -1,500 Descending Memphis Center
07:43AM 36.9908 -88.9803 297° West 393 452 26,000 -900 Descending Memphis Center
07:44AM 37.0464 -89.1172 297° West 393 452 26,000  Level Memphis Center
07:45AM 37.0936 -89.2386 296° West 398 458 26,000  Level Memphis Center
07:47AM 37.1628 -89.4089 297° West 389 448 26,000  Level Kansas City Center
07:48AM 37.2083 -89.5269 296° West 381 438 26,000  Level Kansas City Center
07:49AM 37.2856 -89.6039 322° Northwest 369 425 26,000 -600 Level Kansas City Center
07:50AM 37.3808 -89.6564 336° Northwest 372 428 24,900 -1,440 Descending Kansas City Center
07:51AM 37.4803 -89.7094 337° Northwest 384 442 23,100 -1,800 Descending Kansas City Center
07:52AM 37.5717 -89.7611 336° Northwest 366 421 21,300 -1,680 Descending Kansas City Center
07:53AM 37.6525 -89.8050 337° Northwest 343 395 19,800 -1,560 Descending Kansas City Center
07:54AM 37.7397 -89.8539 336° Northwest 342 394 18,200 -1,620 Descending Kansas City Center
07:55AM 37.8283 -89.9017 337° Northwest 346 398 16,600 -1,740 Descending Kansas City Center
07:56AM 37.9311 -89.9586 336° Northwest 337 388 14,700 -1,680 Descending Kansas City Center
07:57AM 38.0114 -90.0039 336° Northwest 320 368 13,200 -1,500 Descending Kansas City Center
07:58AM 38.0894 -90.0472 336° Northwest 309 356 11,700 -1,140 Descending Kansas City Center
07:59AM 38.1683 -90.0819 341° North 303 349 11,000 -600 Descending Kansas City Center
08:00AM 38.2519 -90.0986 351° North 303 349 10,600 -1,200 Descending Kansas City Center
08:01AM 38.3306 -90.1136 351° North 295 339 8,600 -1,320 Descending Kansas City Center
08:02AM 38.4083 -90.1083 North 259 298 8,000 -840 Descending Kansas City Center
08:03AM 38.4589 -90.0931 13° North 242 278 7,000 -1,020 Descending Kansas City Center
08:04AM 38.5297 -90.0728 13° North 221 254 6,000 -660 Descending Kansas City Center
08:05AM 38.5828 -90.0575 13° North 203 234 5,700 -660 Descending Kansas City Center
08:06AM 38.6214 -90.0856 330° Northwest 191 220 4,700 -840 Descending Kansas City Center
08:07AM 38.6400 -90.1400 294° West 179 206 4,000 -660 Descending Kansas City Center
08:08AM 38.6689 -90.1989 302° West 184 212 3,400 -840 Descending Kansas City Center
08:09AM 38.6944 -90.2492 303° West 178 205 2,300 -1,020 Descending Kansas City Center
08:10AM 38.7153 -90.2922 302° West 156 180 1,400 -780 Descending Kansas City Center
08:11AM 38.7339 -90.3303 302° West 140 161 800 -480 Descending Kansas City Center
08:12AM 38.7553 -90.3733 303° West 135 155 500 -300 Descending Kansas City Center
08:14AM 38.7487 -90.3700 180° South  Level Estimated